This demonstration page uses our WeatherBlox Daily Observations layout. Learn more.

40.92945, -100.16068

Hourly Observations for June 2, 2015

Temp ( °F °C ) Dew Point ( °F °C ) Humidity (%) Winds ( mph kmh ) Pressure ( in mb ) Visibility ( mi km ) Precip ( " mm )
12:15 am 00:15 Clear 64 17.8 59 15.1 84 84 SE 12 19 29.94 1014 10 16.0934 N/A
12:35 am 00:35 Clear with Nearby Thunderstorms 64 17.7 59 15.1 85 85 SSE 14 22 29.94 1014 10 16.0934 N/A
12:55 am 00:55 Clear 64 17.7 59 15.1 85 85 SSE 10 17 29.94 1014 10 16.0934 N/A
1:15 am 01:15 Partly Cloudy 64 18 60 15.4 85 85 WNW 16 26 29.97 1015 10 16.0934 N/A
1:35 am 01:35 Mostly Cloudy with Nearby Thunderstorms 66 19 61 16 83 83 W 14 22 29.97 1015 10 16.0934 N/A
1:55 am 01:55 Partly Cloudy with Light Rain 65 18.6 61 16.1 85 85 SW 7 11 29.97 1015 10 16.0934 N/A
2:15 am 02:15 Clear 65 18.4 62 16.5 89 89 SSW 10 17 29.97 1015 10 16.0934 N/A
2:35 am 02:35 Clear 65 18.5 62 16.6 89 89 SSW 10 17 29.97 1015 10 16.0934 N/A
2:55 am 02:55 Clear with Light Drizzle 65 18.5 62 16.6 89 89 SSW 7 11 29.97 1015 10 16.0934 N/A
3:15 am 03:15 Clear with Light Rain 65 18.5 62 16.6 89 89 SW 8 13 29.94 1014 10 16.0934 N/A
3:35 am 03:35 Partly Cloudy with Rain 65 18.2 62 16.6 90 90 S 10 17 29.94 1014 10 16.0934 0.01 0.254
3:55 am 03:55 Partly Cloudy with Rain 65 18.1 62 16.6 91 91 S 18 30 29.91 1013 7 11.26538 0.05 1.27
4:15 am 04:15 Mostly Cloudy with Rain 64 17.7 62 16.9 95 95 S 32 52 29.88 1012 4 6.43736 0.07 1.778
4:35 am 04:35 Cloudy with Rain 64 17.6 63 17 96 96 S 26 43 29.88 1012 5 8.0467 0.17 4.318
4:55 am 04:55 Mostly Cloudy with Rain 63 17.2 62 16.5 96 96 S 18 30 29.85 1011 7 11.26538 0.21 5.334
5:15 am 05:15 Partly Cloudy with Light Rain 64 17.5 62 16.7 95 95 S 17 28 29.83 1010 10 16.0934 0.02 0.508
5:35 am 05:35 Clear with Light Rain 64 17.5 62 16.4 93 93 S 15 24 29.83 1010 10 16.0934 0.02 0.508
5:55 am 05:55 Clear 64 17.7 61 16.1 90 90 S 13 20 29.8 1009 10 16.0934 0.02 0.508
6:15 am 06:15 Sunny 64 18 61 16 88 88 SE 12 19 29.77 1008 10 16.0934 N/A
6:35 am 06:35 Sunny 64 17.8 61 15.9 89 89 SSE 12 19 29.8 1009 10 16.0934 N/A
6:55 am 06:55 Sunny 64 18 60 15.8 87 87 SSE 12 19 29.8 1009 10 16.0934 0 0
7:15 am 07:15 Sunny 63 17.3 60 15.7 90 90 S 17 28 29.83 1010 10 16.0934 N/A
7:35 am 07:35 Sunny 63 17.3 61 16 92 92 S 14 22 29.83 1010 10 16.0934 N/A
7:55 am 07:55 Sunny 63 17.3 61 16 92 92 S 13 20 29.83 1010 10 16.0934 N/A
8:15 am 08:15 Partly Cloudy with Light Rain 63 17.3 61 16.1 93 93 S 13 20 29.85 1011 10 16.0934 N/A
8:35 am 08:35 Mostly Cloudy 64 17.5 62 16.4 93 93 SSW 15 24 29.85 1011 10 16.0934 N/A
8:55 am 08:55 Partly Cloudy 64 17.7 62 16.5 93 93 SSW 12 19 29.85 1011 10 16.0934 N/A
9:15 am 09:15 Partly Cloudy 65 18.1 63 17 93 93 S 8 13 29.85 1011 10 16.0934 N/A
9:35 am 09:35 Sunny 65 18.2 62 16.8 92 92 S 9 15 29.85 1011 10 16.0934 N/A
9:55 am 09:55 Sunny 65 18.6 63 17.3 92 92 SSE 7 11 29.83 1010 10 16.0934 N/A
10:15 am 10:15 Sunny 67 19.5 64 17.7 89 89 SSE 9 15 29.83 1010 10 16.0934 N/A
10:35 am 10:35 Sunny 67 19.5 64 17.6 89 89 SSE 10 17 29.83 1010 10 16.0934 N/A
10:55 am 10:55 Sunny 67 19.5 64 17.7 89 89 SSE 9 15 29.83 1010 10 16.0934 N/A
11:15 am 11:15 Partly Cloudy 68 19.8 64 18 89 89 SSE 8 13 29.83 1010 10 16.0934 N/A
11:35 am 11:35 Partly Cloudy 68 19.9 64 18 89 89 SE 9 15 29.83 1010 10 16.0934 N/A
11:55 am 11:55 Partly Cloudy 69 20.3 65 18.2 88 88 S 7 11 29.83 1010 10 16.0934 N/A
12:15 pm 12:15 Mostly Cloudy 69 20.6 65 18.3 87 87 SSE 6 9 29.83 1010 10 16.0934 N/A
12:35 pm 12:35 Partly Cloudy 71 21.6 66 18.8 84 84 SE 8 13 29.83 1010 10 16.0934 N/A
12:55 pm 12:55 Partly Cloudy 72 22.2 66 19.1 83 83 SE 10 17 29.8 1009 10 16.0934 N/A
1:15 pm 13:15 Partly Cloudy 73 23 67 19.4 80 80 SSE 10 17 29.77 1008 10 16.0934 N/A
1:35 pm 13:35 Mostly Cloudy 75 23.7 67 19.7 78 78 SSE 14 22 29.77 1008 10 16.0934 N/A
1:55 pm 13:55 Cloudy 75 24 67 19.6 76 76 SE 12 19 29.77 1008 10 16.0934 N/A
2:15 pm 14:15 Cloudy 76 24.2 68 20 77 77 SE 10 17 29.77 1008 10 16.0934 N/A
2:35 pm 14:35 Cloudy 76 24.7 68 20 75 75 SSE 9 15 29.77 1008 10 16.0934 N/A
2:55 pm 14:55 Mostly Cloudy 78 25.5 69 20.5 74 74 SSE 12 19 29.71 1006 10 16.0934 N/A
3:15 pm 15:15 Mostly Cloudy 78 25.7 68 20.1 71 71 SE 12 19 29.71 1006 10 16.0934 N/A
3:35 pm 15:35 Mostly Cloudy 79 26.3 69 20.3 70 70 SSE 14 22 29.71 1006 10 16.0934 N/A
3:55 pm 15:55 Partly Cloudy 79 26 68 19.9 69 69 SSE 17 28 29.71 1006 10 16.0934 N/A
4:15 pm 16:15 Partly Cloudy 79 26.1 67 19.6 67 67 SSE 14 22 29.68 1005 10 16.0934 N/A
4:35 pm 16:35 Partly Cloudy 80 26.5 68 19.9 67 67 SSE 13 20 29.68 1005 10 16.0934 N/A
4:55 pm 16:55 Sunny 80 26.8 68 19.8 66 66 S 13 20 29.68 1005 10 16.0934 N/A
5:15 pm 17:15 Sunny 80 26.9 67 19.7 65 65 S 14 22 29.68 1005 10 16.0934 N/A
5:35 pm 17:35 Sunny 80 26.5 68 19.8 67 67 SSE 12 19 29.68 1005 10 16.0934 N/A
5:55 pm 17:55 Hazy 81 27 68 20.2 66 66 SSE 12 19 29.65 1004 5 8.0467 N/A
6:15 pm 18:15 Sunny 82 27.8 68 19.9 62 62 SSE 12 19 29.65 1004 10 16.0934 N/A
6:35 pm 18:35 Sunny 82 27.6 66 19.1 60 60 S 15 24 29.65 1004 10 16.0934 N/A
6:55 pm 18:55 Sunny 82 27.6 66 18.9 59 59 SSE 15 24 29.65 1004 10 16.0934 N/A
7:15 pm 19:15 Sunny 82 27.5 66 18.8 59 59 SSE 13 20 29.65 1004 10 16.0934 N/A
7:35 pm 19:35 Sunny 81 27.4 66 18.9 60 60 SSE 12 19 29.65 1004 10 16.0934 N/A
7:55 pm 19:55 Sunny 81 27 66 19.1 62 62 SE 12 19 29.65 1004 10 16.0934 N/A
8:15 pm 20:15 Hazy 79 26.1 66 19 65 65 SE 10 17 29.65 1004 5 8.0467 N/A
8:35 pm 20:35 Sunny 79 26 66 18.8 65 65 SE 9 15 29.65 1004 10 16.0934 N/A
8:55 pm 20:55 Sunny 78 25.5 66 18.8 67 67 SE 9 15 29.65 1004 10 16.0934 N/A
9:15 pm 21:15 Clear 77 24.8 66 18.8 69 69 SE 9 15 29.65 1004 10 16.0934 N/A
9:35 pm 21:35 Clear 75 24 66 19 74 74 SE 10 17 29.65 1004 10 16.0934 N/A
9:55 pm 21:55 Clear 75 23.9 66 19 74 74 SE 10 17 29.65 1004 10 16.0934 N/A
10:15 pm 22:15 Clear 75 23.7 66 19 75 75 SE 12 19 29.65 1004 10 16.0934 N/A
10:35 pm 22:35 Clear 74 23.2 66 19 77 77 SE 10 17 29.68 1005 10 16.0934 N/A
10:55 pm 22:55 Clear 74 23.1 66 18.9 77 77 SE 9 15 29.68 1005 10 16.0934 N/A
11:15 pm 23:15 Clear 73 22.8 66 18.8 78 78 ESE 12 19 29.68 1005 10 16.0934 N/A
11:35 pm 23:35 Clear 73 22.6 66 18.8 79 79 ESE 10 17 29.68 1005 10 16.0934 N/A
11:55 pm 23:55 Clear 72 22.4 66 18.8 80 80 E 9 15 29.68 1005 10 16.0934 N/A

Powered by AerisWeather